Location: Fairmont
(43.6520°N, 94.4610°W)
Time: 09:22:58
(UTC-05:00)

Cosmos-2242 - Visible Passes

Search period start: 28 July 2014 00:00
Search period end: 07 August 2014 00:00
Orbit: 597 x 624 km, 82.5° (Epoch: 27 July)

Date Brightness Start Highest point End Pass type
(mag) Time Alt. Az. Time Alt. Az. Time Alt. Az.
28 Jul 3.3 02:23:39 65° NNE 02:23:39 65° NNE 02:27:21 10° N visible
29 Jul 5.5 01:01:20 13° ENE 01:01:20 13° ENE 01:02:39 10° NE visible
29 Jul 3.6 02:38:19 48° NW 02:38:19 48° NW 02:41:57 10° N visible
30 Jul 5.0 01:15:59 21° ENE 01:15:59 21° ENE 01:18:21 10° NE visible
30 Jul 4.3 02:52:58 30° WNW 02:52:58 30° WNW 02:56:19 10° NNW visible
31 Jul 4.4 01:30:38 32° NE 01:30:38 32° NE 01:33:30 10° NNE visible
31 Jul 4.9 03:07:37 18° WNW 03:07:37 18° WNW 03:10:23 10° NNW visible
01 Aug 4.0 01:45:16 45° NNE 01:45:16 45° NNE 01:48:22 10° NNE visible
01 Aug 5.4 03:22:15 11° WNW 03:22:18 11° WNW 03:23:33 10° NW visible
02 Aug 4.0 01:59:54 45° NNW 01:59:54 45° NNW 02:03:02 10° N visible
03 Aug 5.3 00:37:32 16° ENE 00:37:32 16° ENE 00:39:06 10° NE visible
03 Aug 4.4 02:14:31 32° NW 02:14:31 32° NW 02:17:29 10° N visible
04 Aug 4.8 00:52:08 24° NE 00:52:08 24° NE 00:54:23 10° NNE visible
04 Aug 4.9 02:29:07 21° NW 02:29:07 21° NW 02:31:42 10° NNW visible
05 Aug 4.4 01:06:44 34° NNE 01:06:44 34° NNE 01:09:20 10° NNE visible
05 Aug 5.4 02:43:42 13° WNW 02:43:42 13° WNW 02:45:23 10° NW visible
06 Aug 4.3 01:21:19 39° N 01:21:19 39° N 01:24:04 10° N visible
06 Aug 5.5 23:58:55 13° ENE 23:58:55 13° ENE 23:59:44 10° NE visible
